Tracking 20241 objects as of 26-Jan-2020
HD Live streaming from Space Station
objects crossing your sky now

FENGYUN 1C DEB

Track FENGYUN 1C DEB now!
10-day predictions


NORAD ID: 31297
Int'l Code: 1999-025BPF
Perigee: 622.6 km
Apogee: 844.4 km
Inclination: 99.0 °
Period: 99.3 minutes
Semi major axis: 7104 km
RCS: 0.0028 m2 (small)
Launch date: May 10, 1999
Source: People's Republic of China (PRC)
Launch site: Taiyaun Space Center, China (TSC)

Note: This is SATELLITE DEBRIS
aabbcc
Your satellite tracking list
Your tracking list is empty




NASA's NSSDC Master Catalog

Two Line Element Set (TLE):
1 31297U 99025BPF 20025.38046934 +.00000067 +00000-0 +27697-4 0  9991
2 31297 098.9633 355.9160 0156100 117.1527 035.4219 14.49777427681436
Source of the keplerian elements: AFSPC